contact:dominique.lefevre@mio.osupytheas.fr, maurice.libes@osupytheas.fr, didier.mallarino@osupytheas.fr
Project:EMSO http://www.emso-fr.org/EMSO-France
Depth: 2436.0 m
Title:EMSO Ligure Ouest : Data MII capteur MICROCAT
DateTime_Computer,Latitude,Longitude,Temperature,Conductivity,Pressure,DateTime_Instrument
DateTime_Computer,Latitude,Longitude,degC,S m-1,dbar,DateTime_Instrument
2024-04-09T00:01:39Z,42.805,6.029,13.3048,4.60140,2470.81,2024-4-09T02:04:19Z
2024-04-09T00:04:42Z,42.805,6.029,13.3043,4.60147,2470.787,2024-4-09T02:07:22Z
2024-04-09T00:07:45Z,42.805,6.029,13.3045,4.60137,2470.833,2024-4-09T02:10:25Z
2024-04-09T00:10:49Z,42.805,6.029,13.3041,4.60139,2470.847,2024-4-09T02:13:28Z
2024-04-09T00:13:52Z,42.805,6.029,13.3044,4.60142,2470.81,2024-4-09T02:16:31Z
2024-04-09T00:16:55Z,42.805,6.029,13.3044,4.60137,2470.857,2024-4-09T02:19:34Z
2024-04-09T00:19:58Z,42.805,6.029,13.3049,4.60139,2470.847,2024-4-09T02:22:37Z
2024-04-09T00:23:01Z,42.805,6.029,13.3041,4.60137,2470.847,2024-4-09T02:25:40Z
2024-04-09T00:26:04Z,42.805,6.029,13.3051,4.60143,2470.824,2024-4-09T02:28:43Z
2024-04-09T00:29:07Z,42.805,6.029,13.3053,4.60142,2470.81,2024-4-09T02:31:47Z
2024-04-09T00:32:10Z,42.805,6.029,13.3044,4.60139,2470.81,2024-4-09T02:34:50Z
2024-04-09T00:35:13Z,42.805,6.029,13.3045,4.60144,2470.824,2024-4-09T02:37:53Z
2024-04-09T00:38:16Z,42.805,6.029,13.3045,4.60138,2470.8,2024-4-09T02:40:56Z
2024-04-09T00:41:19Z,42.805,6.029,13.3049,4.60140,2470.787,2024-4-09T02:43:59Z
2024-04-09T00:44:22Z,42.805,6.029,13.3047,4.60137,2470.763,2024-4-09T02:47:02Z
2024-04-09T00:47:25Z,42.805,6.029,13.3048,4.60141,2470.773,2024-4-09T02:50:05Z
2024-04-09T00:50:29Z,42.805,6.029,13.3046,4.60145,2470.787,2024-4-09T02:53:08Z
2024-04-09T00:53:32Z,42.805,6.029,13.3048,4.60140,2470.824,2024-4-09T02:56:11Z
2024-04-09T00:56:35Z,42.805,6.029,13.3046,4.60142,2470.8,2024-4-09T02:59:14Z
2024-04-09T00:59:38Z,42.805,6.029,13.3047,4.60137,2470.81,2024-4-09T03:02:17Z
2024-04-09T01:02:41Z,42.805,6.029,13.3048,4.60147,2470.8,2024-4-09T03:05:20Z
2024-04-09T01:05:44Z,42.805,6.029,13.3047,4.60136,2470.787,2024-4-09T03:08:23Z
2024-04-09T01:08:47Z,42.805,6.029,13.3047,4.60140,2470.763,2024-4-09T03:11:26Z
2024-04-09T01:11:50Z,42.805,6.029,13.3048,4.60140,2470.777,2024-4-09T03:14:30Z
2024-04-09T01:14:53Z,42.805,6.029,13.3046,4.60138,2470.787,2024-4-09T03:17:33Z
2024-04-09T01:17:56Z,42.805,6.029,13.3048,4.60135,2470.763,2024-4-09T03:20:36Z
2024-04-09T01:20:59Z,42.805,6.029,13.3047,4.60140,2470.777,2024-4-09T03:23:39Z
2024-04-09T01:24:02Z,42.805,6.029,13.3044,4.60137,2470.787,2024-4-09T03:26:42Z
2024-04-09T01:27:05Z,42.805,6.029,13.3047,4.60146,2470.787,2024-4-09T03:29:45Z
2024-04-09T01:30:08Z,42.805,6.029,13.3046,4.60135,2470.81,2024-4-09T03:32:48Z
2024-04-09T01:33:12Z,42.805,6.029,13.3043,4.60135,2470.8,2024-4-09T03:35:51Z
2024-04-09T01:36:15Z,42.805,6.029,13.3046,4.60135,2470.8,2024-4-09T03:38:54Z
2024-04-09T01:39:18Z,42.805,6.029,13.3052,4.60140,2470.763,2024-4-09T03:41:57Z
2024-04-09T01:42:21Z,42.805,6.029,13.3045,4.60136,2470.787,2024-4-09T03:45:00Z
2024-04-09T01:45:24Z,42.805,6.029,13.3046,4.60134,2470.763,2024-4-09T03:48:03Z
2024-04-09T01:48:27Z,42.805,6.029,13.3043,4.60134,2470.787,2024-4-09T03:51:06Z
2024-04-09T01:51:30Z,42.805,6.029,13.3044,4.60133,2470.787,2024-4-09T03:54:10Z
2024-04-09T01:54:33Z,42.805,6.029,13.3043,4.60140,2470.8,2024-4-09T03:57:13Z
2024-04-09T01:57:36Z,42.805,6.029,13.3047,4.60138,2470.81,2024-4-09T04:00:16Z
2024-04-09T02:00:39Z,42.805,6.029,13.3046,4.60140,2470.8,2024-4-09T04:03:19Z
2024-04-09T02:03:42Z,42.805,6.029,13.3043,4.60137,2470.787,2024-4-09T04:06:22Z
2024-04-09T02:06:45Z,42.805,6.029,13.3047,4.60139,2470.824,2024-4-09T04:09:25Z
2024-04-09T02:09:48Z,42.805,6.029,13.3049,4.60138,2470.763,2024-4-09T04:12:28Z
2024-04-09T02:12:51Z,42.805,6.029,13.3048,4.60138,2470.787,2024-4-09T04:15:31Z
2024-04-09T02:15:55Z,42.805,6.029,13.3045,4.60139,2470.763,2024-4-09T04:18:34Z
2024-04-09T02:18:58Z,42.805,6.029,13.3049,4.60144,2470.763,2024-4-09T04:21:37Z
2024-04-09T02:22:01Z,42.805,6.029,13.3047,4.60135,2470.787,2024-4-09T04:24:40Z
2024-04-09T02:25:04Z,42.805,6.029,13.3051,4.60137,2470.8,2024-4-09T04:27:43Z
2024-04-09T02:28:07Z,42.805,6.029,13.3046,4.60135,2470.8,2024-4-09T04:30:46Z
2024-04-09T02:31:10Z,42.805,6.029,13.3047,4.60140,2470.777,2024-4-09T04:33:50Z
2024-04-09T02:34:13Z,42.805,6.029,13.3050,4.60142,2470.763,2024-4-09T04:36:53Z
2024-04-09T02:37:16Z,42.805,6.029,13.3050,4.60143,2470.787,2024-4-09T04:39:56Z
2024-04-09T02:40:19Z,42.805,6.029,13.3046,4.60137,2470.787,2024-4-09T04:42:59Z
2024-04-09T02:43:22Z,42.805,6.029,13.3048,4.60139,2470.796,2024-4-09T04:46:02Z
2024-04-09T02:46:25Z,42.805,6.029,13.3051,4.60139,2470.81,2024-4-09T04:49:05Z
2024-04-09T02:49:28Z,42.805,6.029,13.3049,4.60142,2470.824,2024-4-09T04:52:08Z
2024-04-09T02:52:32Z,42.805,6.029,13.3050,4.60142,2470.787,2024-4-09T04:55:11Z
2024-04-09T02:55:35Z,42.805,6.029,13.3050,4.60134,2470.81,2024-4-09T04:58:14Z
2024-04-09T02:58:38Z,42.805,6.029,13.3043,4.60136,2470.81,2024-4-09T05:01:17Z
2024-04-09T03:01:41Z,42.805,6.029,13.3050,4.60135,2470.824,2024-4-09T05:04:20Z
2024-04-09T03:04:44Z,42.805,6.029,13.3044,4.60139,2470.81,2024-4-09T05:07:23Z
2024-04-09T03:07:47Z,42.805,6.029,13.3048,4.60139,2470.81,2024-4-09T05:10:26Z
2024-04-09T03:10:50Z,42.805,6.029,13.3048,4.60137,2470.787,2024-4-09T05:13:30Z
2024-04-09T03:13:53Z,42.805,6.029,13.3043,4.60145,2470.824,2024-4-09T05:16:33Z
2024-04-09T03:16:56Z,42.805,6.029,13.3049,4.60137,2470.833,2024-4-09T05:19:36Z
2024-04-09T03:19:59Z,42.805,6.029,13.3045,4.60133,2470.833,2024-4-09T05:22:39Z
2024-04-09T03:23:02Z,42.805,6.029,13.3049,4.60137,2470.824,2024-4-09T05:25:42Z
2024-04-09T03:26:05Z,42.805,6.029,13.3053,4.60141,2470.833,2024-4-09T05:28:45Z
2024-04-09T03:29:08Z,42.805,6.029,13.3050,4.60138,2470.847,2024-4-09T05:31:48Z
2024-04-09T03:32:12Z,42.805,6.029,13.3048,4.60137,2470.857,2024-4-09T05:34:51Z
2024-04-09T03:35:15Z,42.805,6.029,13.3048,4.60141,2470.833,2024-4-09T05:37:54Z
2024-04-09T03:38:18Z,42.805,6.029,13.3042,4.60138,2470.847,2024-4-09T05:40:57Z
2024-04-09T03:41:21Z,42.805,6.029,13.3048,4.60138,2470.847,2024-4-09T05:44:00Z
2024-04-09T03:44:24Z,42.805,6.029,13.3044,4.60137,2470.88,2024-4-09T05:47:03Z
2024-04-09T03:47:27Z,42.805,6.029,13.3045,4.60142,2470.88,2024-4-09T05:50:06Z
2024-04-09T03:50:30Z,42.805,6.029,13.3046,4.60135,2470.88,2024-4-09T05:53:10Z
2024-04-09T03:53:33Z,42.805,6.029,13.3047,4.60139,2470.843,2024-4-09T05:56:13Z
2024-04-09T03:56:36Z,42.805,6.029,13.3046,4.60137,2470.88,2024-4-09T05:59:16Z
2024-04-09T03:59:39Z,42.805,6.029,13.3046,4.60142,2470.88,2024-4-09T06:02:19Z
2024-04-09T04:02:42Z,42.805,6.029,13.3048,4.60136,2470.894,2024-4-09T06:05:22Z
2024-04-09T04:05:45Z,42.805,6.029,13.3046,4.60157,2470.871,2024-4-09T06:08:25Z
2024-04-09T04:08:48Z,42.805,6.029,13.3044,4.60137,2470.917,2024-4-09T06:11:28Z
2024-04-09T04:11:51Z,42.805,6.029,13.3044,4.60140,2470.894,2024-4-09T06:14:31Z
2024-04-09T04:14:55Z,42.805,6.029,13.3045,4.60141,2470.857,2024-4-09T06:17:34Z
2024-04-09T04:17:58Z,42.805,6.029,13.3052,4.60140,2470.88,2024-4-09T06:20:37Z
2024-04-09T04:21:01Z,42.805,6.029,13.3051,4.60144,2470.894,2024-4-09T06:23:40Z
2024-04-09T04:24:04Z,42.805,6.029,13.3047,4.60135,2470.88,2024-4-09T06:26:43Z
2024-04-09T04:27:07Z,42.805,6.029,13.3048,4.60138,2470.904,2024-4-09T06:29:46Z
2024-04-09T04:30:10Z,42.805,6.029,13.3046,4.60147,2470.88,2024-4-09T06:32:50Z
2024-04-09T04:33:13Z,42.805,6.029,13.3048,4.60152,2470.904,2024-4-09T06:35:53Z
2024-04-09T04:36:16Z,42.805,6.029,13.3048,4.60140,2470.917,2024-4-09T06:38:56Z
2024-04-09T04:39:19Z,42.805,6.029,13.3049,4.60137,2470.94,2024-4-09T06:41:59Z
2024-04-09T04:42:22Z,42.805,6.029,13.3043,4.60139,2470.904,2024-4-09T06:45:02Z
2024-04-09T04:45:25Z,42.805,6.029,13.3050,4.60145,2470.94,2024-4-09T06:48:05Z
2024-04-09T04:48:28Z,42.805,6.029,13.3054,4.60148,2470.94,2024-4-09T06:51:08Z
2024-04-09T04:51:32Z,42.805,6.029,13.3053,4.60144,2470.927,2024-4-09T06:54:11Z
2024-04-09T04:54:35Z,42.805,6.029,13.3044,4.60140,2470.95,2024-4-09T06:57:14Z
2024-04-09T04:57:38Z,42.805,6.029,13.3050,4.60137,2470.927,2024-4-09T07:00:17Z
2024-04-09T05:00:41Z,42.805,6.029,13.3044,4.60138,2470.94,2024-4-09T07:03:20Z
2024-04-09T05:03:44Z,42.805,6.029,13.3051,4.60138,2470.95,2024-4-09T07:06:23Z
2024-04-09T05:06:47Z,42.805,6.029,13.3046,4.60137,2470.95,2024-4-09T07:09:26Z
2024-04-09T05:09:50Z,42.805,6.029,13.3050,4.60135,2470.927,2024-4-09T07:12:30Z
2024-04-09T05:12:53Z,42.805,6.029,13.3048,4.60145,2470.973,2024-4-09T07:15:33Z
2024-04-09T05:15:56Z,42.805,6.029,13.3047,4.60135,2470.95,2024-4-09T07:18:36Z
2024-04-09T05:18:59Z,42.805,6.029,13.3047,4.60140,2470.973,2024-4-09T07:21:39Z
2024-04-09T05:22:02Z,42.805,6.029,13.3043,4.60140,2470.987,2024-4-09T07:24:42Z
2024-04-09T05:25:05Z,42.805,6.029,13.3046,4.60137,2470.964,2024-4-09T07:27:45Z
2024-04-09T05:28:08Z,42.805,6.029,13.3047,4.60139,2471.01,2024-4-09T07:30:48Z
2024-04-09T05:31:11Z,42.805,6.029,13.3048,4.60139,2470.987,2024-4-09T07:33:51Z
2024-04-09T05:34:15Z,42.805,6.029,13.3045,4.60137,2471.01,2024-4-09T07:36:54Z
2024-04-09T05:37:18Z,42.805,6.029,13.3050,4.60142,2470.973,2024-4-09T07:39:57Z
2024-04-09T05:40:21Z,42.805,6.029,13.3046,4.60138,2470.997,2024-4-09T07:43:00Z
2024-04-09T05:43:24Z,42.805,6.029,13.3046,4.60140,2470.973,2024-4-09T07:46:03Z
2024-04-09T05:46:27Z,42.805,6.029,13.3051,4.60145,2470.997,2024-4-09T07:49:06Z
2024-04-09T05:49:30Z,42.805,6.029,13.3048,4.60150,2470.964,2024-4-09T07:52:10Z
2024-04-09T05:52:33Z,42.805,6.029,13.3051,4.60143,2470.987,2024-4-09T07:55:13Z
2024-04-09T05:55:36Z,42.805,6.029,13.3044,4.60138,2470.997,2024-4-09T07:58:16Z
2024-04-09T05:58:39Z,42.805,6.029,13.3044,4.60136,2471.043,2024-4-09T08:01:19Z
2024-04-09T06:01:42Z,42.805,6.029,13.3047,4.60138,2471.034,2024-4-09T08:04:22Z
2024-04-09T06:04:45Z,42.805,6.029,13.3046,4.60139,2471.02,2024-4-09T08:07:25Z
2024-04-09T06:07:48Z,42.805,6.029,13.3046,4.60137,2471.02,2024-4-09T08:10:28Z
2024-04-09T06:10:51Z,42.805,6.029,13.3045,4.60144,2471.01,2024-4-09T08:13:31Z
2024-04-09T06:13:55Z,42.805,6.029,13.3054,4.60170,2471.02,2024-4-09T08:16:34Z
2024-04-09T06:16:58Z,42.805,6.029,13.3045,4.60150,2471.02,2024-4-09T08:19:37Z
2024-04-09T06:20:01Z,42.805,6.029,13.3046,4.60139,2471.034,2024-4-09T08:22:40Z
2024-04-09T06:23:04Z,42.805,6.029,13.3044,4.60137,2471.043,2024-4-09T08:25:43Z
2024-04-09T06:26:07Z,42.805,6.029,13.3046,4.60147,2471.043,2024-4-09T08:28:46Z
2024-04-09T06:29:10Z,42.805,6.029,13.3042,4.60136,2471.094,2024-4-09T08:31:50Z
2024-04-09T06:32:13Z,42.805,6.029,13.3051,4.60142,2471.081,2024-4-09T08:34:53Z
2024-04-09T06:35:16Z,42.805,6.029,13.3041,4.60139,2471.034,2024-4-09T08:37:56Z
2024-04-09T06:38:19Z,42.805,6.029,13.3044,4.60137,2471.067,2024-4-09T08:40:59Z
2024-04-09T06:41:22Z,42.805,6.029,13.3046,4.60135,2471.043,2024-4-09T08:44:02Z
2024-04-09T06:44:25Z,42.805,6.029,13.3043,4.60135,2471.043,2024-4-09T08:47:05Z
2024-04-09T06:47:28Z,42.805,6.029,13.3049,4.60144,2471.057,2024-4-09T08:50:08Z
2024-04-09T06:50:31Z,42.805,6.029,13.3043,4.60142,2471.043,2024-4-09T08:53:11Z
2024-04-09T06:53:35Z,42.805,6.029,13.3046,4.60149,2471.034,2024-4-09T08:56:14Z
2024-04-09T06:56:38Z,42.805,6.029,13.3048,4.60138,2471.02,2024-4-09T08:59:17Z
2024-04-09T06:59:41Z,42.805,6.029,13.3050,4.60138,2471.081,2024-4-09T09:02:20Z
2024-04-09T07:02:44Z,42.805,6.029,13.3044,4.60137,2471.053,2024-4-09T09:05:23Z
2024-04-09T07:05:47Z,42.805,6.029,13.3051,4.60149,2471.067,2024-4-09T09:08:26Z
2024-04-09T07:08:50Z,42.805,6.029,13.3046,4.60139,2471.067,2024-4-09T09:11:29Z
2024-04-09T07:11:53Z,42.805,6.029,13.3048,4.60137,2471.081,2024-4-09T09:14:33Z
2024-04-09T07:14:56Z,42.805,6.029,13.3045,4.60143,2471.043,2024-4-09T09:17:36Z
2024-04-09T07:17:59Z,42.805,6.029,13.3052,4.60144,2471.081,2024-4-09T09:20:39Z
2024-04-09T07:21:02Z,42.805,6.029,13.3048,4.60140,2471.057,2024-4-09T09:23:42Z
2024-04-09T07:24:05Z,42.805,6.029,13.3051,4.60142,2471.043,2024-4-09T09:26:45Z
2024-04-09T07:27:08Z,42.805,6.029,13.3052,4.60146,2471.081,2024-4-09T09:29:48Z
2024-04-09T07:30:11Z,42.805,6.029,13.3044,4.60137,2471.01,2024-4-09T09:32:51Z
2024-04-09T07:33:15Z,42.805,6.029,13.3049,4.60145,2471.043,2024-4-09T09:35:54Z
2024-04-09T07:36:18Z,42.805,6.029,13.3046,4.60147,2471.081,2024-4-09T09:38:57Z
2024-04-09T07:39:21Z,42.805,6.029,13.3046,4.60139,2471.081,2024-4-09T09:42:00Z
2024-04-09T07:42:24Z,42.805,6.029,13.3047,4.60140,2471.057,2024-4-09T09:45:03Z
2024-04-09T07:45:27Z,42.805,6.029,13.3045,4.60146,2471.043,2024-4-09T09:48:06Z
2024-04-09T07:48:30Z,42.805,6.029,13.3052,4.60145,2471.067,2024-4-09T09:51:10Z
2024-04-09T07:51:33Z,42.805,6.029,13.3048,4.60140,2471.043,2024-4-09T09:54:13Z
2024-04-09T07:54:36Z,42.805,6.029,13.3052,4.60139,2471.043,2024-4-09T09:57:16Z
2024-04-09T07:57:39Z,42.805,6.029,13.3053,4.60140,2471.067,2024-4-09T10:00:19Z
2024-04-09T08:00:42Z,42.805,6.029,13.3039,4.60135,2471.067,2024-4-09T10:03:22Z
2024-04-09T08:03:45Z,42.805,6.029,13.3048,4.60140,2471.02,2024-4-09T10:06:25Z
2024-04-09T08:06:48Z,42.805,6.029,13.3051,4.60140,2471.02,2024-4-09T10:09:28Z
2024-04-09T08:09:51Z,42.805,6.029,13.3053,4.60147,2471.043,2024-4-09T10:12:31Z
2024-04-09T08:12:55Z,42.805,6.029,13.3051,4.60142,2471.057,2024-4-09T10:15:34Z
2024-04-09T08:15:58Z,42.805,6.029,13.3048,4.60142,2471.067,2024-4-09T10:18:37Z
2024-04-09T08:19:01Z,42.805,6.029,13.3049,4.60142,2471.057,2024-4-09T10:21:40Z
2024-04-09T08:22:04Z,42.805,6.029,13.3054,4.60145,2471.043,2024-4-09T10:24:43Z
2024-04-09T08:25:07Z,42.805,6.029,13.3046,4.60137,2471.034,2024-4-09T10:27:46Z
2024-04-09T08:28:10Z,42.805,6.029,13.3046,4.60140,2471.057,2024-4-09T10:30:50Z
2024-04-09T08:31:13Z,42.805,6.029,13.3044,4.60140,2471.057,2024-4-09T10:33:53Z
2024-04-09T08:34:16Z,42.805,6.029,13.3049,4.60137,2471.043,2024-4-09T10:36:56Z
2024-04-09T08:37:19Z,42.805,6.029,13.3052,4.60145,2471.081,2024-4-09T10:39:59Z
2024-04-09T08:40:22Z,42.805,6.029,13.3048,4.60147,2471.081,2024-4-09T10:43:02Z
2024-04-09T08:43:25Z,42.805,6.029,13.3048,4.60137,2471.043,2024-4-09T10:46:05Z
2024-04-09T08:46:28Z,42.805,6.029,13.3044,4.60142,2471.02,2024-4-09T10:49:08Z
2024-04-09T08:49:31Z,42.805,6.029,13.3046,4.60146,2471.034,2024-4-09T10:52:11Z
2024-04-09T08:52:35Z,42.805,6.029,13.3048,4.60145,2471.02,2024-4-09T10:55:14Z
2024-04-09T08:55:38Z,42.805,6.029,13.3046,4.60140,2470.997,2024-4-09T10:58:17Z
2024-04-09T08:58:41Z,42.805,6.029,13.3048,4.60145,2471.02,2024-4-09T11:01:20Z
2024-04-09T09:01:44Z,42.805,6.029,13.3053,4.60160,2471.01,2024-4-09T11:04:23Z
2024-04-09T09:04:47Z,42.805,6.029,13.3045,4.60142,2471.02,2024-4-09T11:07:26Z
2024-04-09T09:07:50Z,42.805,6.029,13.3048,4.60137,2470.987,2024-4-09T11:10:30Z
2024-04-09T09:10:53Z,42.805,6.029,13.3050,4.60144,2471.01,2024-4-09T11:13:33Z
2024-04-09T09:13:56Z,42.805,6.029,13.3047,4.60142,2471.02,2024-4-09T11:16:36Z
2024-04-09T09:16:59Z,42.805,6.029,13.3048,4.60142,2470.997,2024-4-09T11:19:39Z
2024-04-09T09:20:02Z,42.805,6.029,13.3048,4.60147,2471.034,2024-4-09T11:22:42Z
2024-04-09T09:23:05Z,42.805,6.029,13.3051,4.60139,2471.034,2024-4-09T11:25:45Z
2024-04-09T09:26:08Z,42.805,6.029,13.3047,4.60141,2471.01,2024-4-09T11:28:48Z
2024-04-09T09:29:12Z,42.805,6.029,13.3052,4.60145,2471.01,2024-4-09T11:31:51Z
2024-04-09T09:32:15Z,42.805,6.029,13.3042,4.60142,2471.043,2024-4-09T11:34:54Z
2024-04-09T09:35:18Z,42.805,6.029,13.3046,4.60145,2471.01,2024-4-09T11:37:57Z
2024-04-09T09:38:21Z,42.805,6.029,13.3046,4.60141,2471.01,2024-4-09T11:41:00Z
2024-04-09T09:41:24Z,42.805,6.029,13.3044,4.60157,2470.973,2024-4-09T11:44:03Z
2024-04-09T09:44:27Z,42.805,6.029,13.3050,4.60140,2470.997,2024-4-09T11:47:07Z
2024-04-09T09:47:30Z,42.805,6.029,13.3045,4.60137,2470.973,2024-4-09T11:50:10Z
2024-04-09T09:50:33Z,42.805,6.029,13.3048,4.60141,2471.034,2024-4-09T11:53:13Z
2024-04-09T09:53:36Z,42.805,6.029,13.3043,4.60135,2470.997,2024-4-09T11:56:16Z
2024-04-09T09:56:39Z,42.805,6.029,13.3051,4.60140,2470.964,2024-4-09T11:59:19Z
2024-04-09T09:59:42Z,42.805,6.029,13.3046,4.60150,2470.973,2024-4-09T12:02:22Z
2024-04-09T10:02:45Z,42.805,6.029,13.3053,4.60143,2470.973,2024-4-09T12:05:25Z
2024-04-09T10:05:49Z,42.805,6.029,13.3044,4.60135,2470.973,2024-4-09T12:08:28Z
2024-04-09T10:08:52Z,42.805,6.029,13.3046,4.60135,2470.964,2024-4-09T12:11:31Z
2024-04-09T10:11:55Z,42.805,6.029,13.3044,4.60140,2470.95,2024-4-09T12:14:34Z
2024-04-09T10:14:58Z,42.805,6.029,13.3044,4.60139,2470.964,2024-4-09T12:17:37Z
2024-04-09T10:18:01Z,42.805,6.029,13.3045,4.60144,2470.95,2024-4-09T12:20:40Z
2024-04-09T10:21:04Z,42.805,6.029,13.3051,4.60139,2470.917,2024-4-09T12:23:44Z
2024-04-09T10:24:07Z,42.805,6.029,13.3048,4.60142,2470.904,2024-4-09T12:26:47Z
2024-04-09T10:27:10Z,42.805,6.029,13.3040,4.60138,2470.964,2024-4-09T12:29:50Z
2024-04-09T10:30:13Z,42.805,6.029,13.3041,4.60135,2470.94,2024-4-09T12:32:53Z
2024-04-09T10:33:16Z,42.805,6.029,13.3044,4.60140,2470.95,2024-4-09T12:35:56Z
2024-04-09T10:36:19Z,42.805,6.029,13.3048,4.60146,2470.927,2024-4-09T12:38:59Z
2024-04-09T10:39:22Z,42.805,6.029,13.3046,4.60142,2470.927,2024-4-09T12:42:02Z
2024-04-09T10:42:25Z,42.805,6.029,13.3051,4.60138,2470.927,2024-4-09T12:45:05Z
2024-04-09T10:45:29Z,42.805,6.029,13.3047,4.60140,2470.927,2024-4-09T12:48:08Z
2024-04-09T10:48:32Z,42.805,6.029,13.3054,4.60139,2470.904,2024-4-09T12:51:11Z
2024-04-09T10:51:35Z,42.805,6.029,13.3044,4.60137,2470.927,2024-4-09T12:54:14Z
2024-04-09T10:54:38Z,42.805,6.029,13.3049,4.60138,2470.917,2024-4-09T12:57:17Z
2024-04-09T10:57:41Z,42.805,6.029,13.3046,4.60149,2470.94,2024-4-09T13:00:21Z
2024-04-09T11:00:44Z,42.805,6.029,13.3050,4.60138,2470.894,2024-4-09T13:03:24Z
2024-04-09T11:03:47Z,42.805,6.029,13.3047,4.60143,2470.904,2024-4-09T13:06:27Z
2024-04-09T11:06:50Z,42.805,6.029,13.3044,4.60140,2470.94,2024-4-09T13:09:30Z
2024-04-09T11:09:53Z,42.805,6.029,13.3044,4.60139,2470.917,2024-4-09T13:12:33Z
2024-04-09T11:12:56Z,42.805,6.029,13.3047,4.60137,2470.904,2024-4-09T13:15:36Z
2024-04-09T11:15:59Z,42.805,6.029,13.3046,4.60150,2470.88,2024-4-09T13:18:39Z
2024-04-09T11:19:02Z,42.805,6.029,13.3043,4.60140,2470.917,2024-4-09T13:21:42Z
2024-04-09T11:22:06Z,42.805,6.029,13.3048,4.60139,2470.904,2024-4-09T13:24:45Z
2024-04-09T11:25:09Z,42.805,6.029,13.3053,4.60139,2470.88,2024-4-09T13:27:48Z
2024-04-09T11:28:12Z,42.805,6.029,13.3043,4.60133,2470.894,2024-4-09T13:30:51Z
2024-04-09T11:31:15Z,42.805,6.029,13.3043,4.60137,2470.88,2024-4-09T13:33:54Z
2024-04-09T11:34:18Z,42.805,6.029,13.3043,4.60137,2470.894,2024-4-09T13:36:57Z
2024-04-09T11:37:21Z,42.805,6.029,13.3048,4.60135,2470.871,2024-4-09T13:40:01Z
2024-04-09T11:40:24Z,42.805,6.029,13.3048,4.60134,2470.904,2024-4-09T13:43:04Z
2024-04-09T11:43:27Z,42.805,6.029,13.3048,4.60141,2470.88,2024-4-09T13:46:07Z
2024-04-09T11:46:30Z,42.805,6.029,13.3046,4.60137,2470.88,2024-4-09T13:49:10Z
2024-04-09T11:49:33Z,42.805,6.029,13.3045,4.60138,2470.857,2024-4-09T13:52:13Z
2024-04-09T11:52:36Z,42.805,6.029,13.3054,4.60140,2470.857,2024-4-09T13:55:16Z
2024-04-09T11:55:39Z,42.805,6.029,13.3051,4.60141,2470.894,2024-4-09T13:58:19Z
2024-04-09T11:58:43Z,42.805,6.029,13.3046,4.60138,2470.88,2024-4-09T14:01:22Z
2024-04-09T12:01:46Z,42.805,6.029,13.3051,4.60146,2470.833,2024-4-09T14:04:25Z
2024-04-09T12:04:49Z,42.805,6.029,13.3047,4.60154,2470.81,2024-4-09T14:07:28Z
2024-04-09T12:07:52Z,42.805,6.029,13.3049,4.60134,2470.824,2024-4-09T14:10:31Z
2024-04-09T12:10:55Z,42.805,6.029,13.3049,4.60140,2470.847,2024-4-09T14:13:34Z
2024-04-09T12:13:58Z,42.805,6.029,13.3044,4.60136,2470.833,2024-4-09T14:16:38Z
2024-04-09T12:17:01Z,42.805,6.029,13.3048,4.60144,2470.857,2024-4-09T14:19:41Z
2024-04-09T12:20:04Z,42.805,6.029,13.3046,4.60137,2470.81,2024-4-09T14:22:44Z
2024-04-09T12:23:07Z,42.805,6.029,13.3041,4.60135,2470.824,2024-4-09T14:25:47Z
2024-04-09T12:26:10Z,42.805,6.029,13.3040,4.60133,2470.81,2024-4-09T14:28:50Z
2024-04-09T12:29:13Z,42.805,6.029,13.3049,4.60144,2470.81,2024-4-09T14:31:53Z
2024-04-09T12:32:16Z,42.805,6.029,13.3042,4.60135,2470.833,2024-4-09T14:34:56Z
2024-04-09T12:35:20Z,42.805,6.029,13.3043,4.60135,2470.857,2024-4-09T14:37:59Z
2024-04-09T12:38:23Z,42.805,6.029,13.3040,4.60138,2470.833,2024-4-09T14:41:02Z
2024-04-09T12:41:26Z,42.805,6.029,13.3046,4.60133,2470.81,2024-4-09T14:44:05Z
2024-04-09T12:44:29Z,42.805,6.029,13.3044,4.60137,2470.824,2024-4-09T14:47:08Z
2024-04-09T12:47:32Z,42.805,6.029,13.3046,4.60139,2470.824,2024-4-09T14:50:11Z
2024-04-09T12:50:35Z,42.805,6.029,13.3043,4.60133,2470.8,2024-4-09T14:53:15Z
2024-04-09T12:53:38Z,42.805,6.029,13.3044,4.60136,2470.824,2024-4-09T14:56:18Z
2024-04-09T12:56:41Z,42.805,6.029,13.3053,4.60149,2470.8,2024-4-09T14:59:21Z
2024-04-09T12:59:44Z,42.805,6.029,13.3046,4.60141,2470.787,2024-4-09T15:02:24Z
2024-04-09T13:02:47Z,42.805,6.029,13.3047,4.60135,2470.81,2024-4-09T15:05:27Z
2024-04-09T13:05:50Z,42.805,6.029,13.3050,4.60146,2470.787,2024-4-09T15:08:30Z
2024-04-09T13:08:53Z,42.805,6.029,13.3041,4.60137,2470.787,2024-4-09T15:11:33Z
2024-04-09T13:11:56Z,42.805,6.029,13.3041,4.60137,2470.824,2024-4-09T15:14:36Z
2024-04-09T13:15:00Z,42.805,6.029,13.3046,4.60135,2470.787,2024-4-09T15:17:39Z
2024-04-09T13:18:03Z,42.805,6.029,13.3045,4.60135,2470.8,2024-4-09T15:20:42Z
2024-04-09T13:21:06Z,42.805,6.029,13.3041,4.60140,2470.763,2024-4-09T15:23:45Z
2024-04-09T13:24:09Z,42.805,6.029,13.3045,4.60132,2470.763,2024-4-09T15:26:48Z
2024-04-09T13:27:12Z,42.805,6.029,13.3048,4.60142,2470.763,2024-4-09T15:29:52Z
2024-04-09T13:30:15Z,42.805,6.029,13.3045,4.60140,2470.763,2024-4-09T15:32:55Z
2024-04-09T13:33:18Z,42.805,6.029,13.3054,4.60143,2470.787,2024-4-09T15:35:58Z
2024-04-09T13:36:21Z,42.805,6.029,13.3048,4.60143,2470.754,2024-4-09T15:39:01Z
2024-04-09T13:39:24Z,42.805,6.029,13.3042,4.60137,2470.777,2024-4-09T15:42:04Z
2024-04-09T13:42:27Z,42.805,6.029,13.3047,4.60141,2470.763,2024-4-09T15:45:07Z
2024-04-09T13:45:30Z,42.805,6.029,13.3049,4.60147,2470.8,2024-4-09T15:48:10Z
2024-04-09T13:48:33Z,42.805,6.029,13.3048,4.60138,2470.763,2024-4-09T15:51:13Z
2024-04-09T13:51:37Z,42.805,6.029,13.3047,4.60140,2470.763,2024-4-09T15:54:16Z
2024-04-09T13:54:40Z,42.805,6.029,13.3049,4.60140,2470.777,2024-4-09T15:57:19Z
2024-04-09T13:57:43Z,42.805,6.029,13.3043,4.60132,2470.787,2024-4-09T16:00:22Z
2024-04-09T14:00:46Z,42.805,6.029,13.3043,4.60137,2470.777,2024-4-09T16:03:25Z
2024-04-09T14:03:49Z,42.805,6.029,13.3048,4.60139,2470.763,2024-4-09T16:06:28Z
2024-04-09T14:06:52Z,42.805,6.029,13.3045,4.60137,2470.8,2024-4-09T16:09:32Z
2024-04-09T14:09:55Z,42.805,6.029,13.3047,4.60140,2470.763,2024-4-09T16:12:35Z
2024-04-09T14:12:58Z,42.805,6.029,13.3043,4.60136,2470.787,2024-4-09T16:15:38Z
2024-04-09T14:16:01Z,42.805,6.029,13.3041,4.60137,2470.74,2024-4-09T16:18:41Z
2024-04-09T14:19:04Z,42.805,6.029,13.3043,4.60142,2470.777,2024-4-09T16:21:44Z
2024-04-09T14:22:07Z,42.805,6.029,13.3044,4.60140,2470.763,2024-4-09T16:24:47Z
2024-04-09T14:25:10Z,42.805,6.029,13.3044,4.60140,2470.763,2024-4-09T16:27:50Z
2024-04-09T14:28:14Z,42.805,6.029,13.3044,4.60132,2470.74,2024-4-09T16:30:53Z
2024-04-09T14:31:17Z,42.805,6.029,13.3043,4.60134,2470.8,2024-4-09T16:33:56Z
2024-04-09T14:34:20Z,42.805,6.029,13.3046,4.60140,2470.787,2024-4-09T16:36:59Z
2024-04-09T14:37:23Z,42.805,6.029,13.3049,4.60145,2470.8,2024-4-09T16:40:02Z
2024-04-09T14:40:26Z,42.805,6.029,13.3049,4.60142,2470.763,2024-4-09T16:43:05Z
2024-04-09T14:43:29Z,42.805,6.029,13.3046,4.60152,2470.787,2024-4-09T16:46:09Z
2024-04-09T14:46:32Z,42.805,6.029,13.3049,4.60141,2470.74,2024-4-09T16:49:12Z
2024-04-09T14:49:35Z,42.805,6.029,13.3048,4.60147,2470.8,2024-4-09T16:52:15Z
2024-04-09T14:52:38Z,42.805,6.029,13.3051,4.60139,2470.74,2024-4-09T16:55:18Z
2024-04-09T14:55:41Z,42.805,6.029,13.3048,4.60142,2470.763,2024-4-09T16:58:21Z
2024-04-09T14:58:44Z,42.805,6.029,13.3048,4.60141,2470.787,2024-4-09T17:01:24Z
2024-04-09T15:01:47Z,42.805,6.029,13.3046,4.60137,2470.787,2024-4-09T17:04:27Z
2024-04-09T15:04:50Z,42.805,6.029,13.3042,4.60135,2470.754,2024-4-09T17:07:30Z
2024-04-09T15:07:54Z,42.805,6.029,13.3043,4.60140,2470.763,2024-4-09T17:10:33Z
2024-04-09T15:10:57Z,42.805,6.029,13.3047,4.60137,2470.74,2024-4-09T17:13:36Z
2024-04-09T15:14:00Z,42.805,6.029,13.3046,4.60136,2470.8,2024-4-09T17:16:39Z